Weather in Trudovoe

Russia / Primorsky Krai     43°18′01″N   132°03′47″E
В апреле 2022 года жителям России запретили посещать сайт meteo.paraplan.net по решению Генеральной прокуратуры. Аудитория сайта уменьшилась в 10 раз. Владельцы сайта не видят смысла в поддержке погодного сервера в таких условиях. Сайт будет закрыт в октябре.
temp.,
°C
wind,
m/s
gust,
m/s
humid.,
%
clouds,
%
prec.,
mm/h
press.,
hPa
HPBL,
m
4 october, tue
tue401:00+8n121890100 5.3 1014816
04:00+5n121990100 5.9 10151024
07:00+5n12188267 0.1 10171161
10:00+6n11176084 0.1 10171404
13:00+9n10154214 0.0 10181983
16:00+11nnw9133986 0.0 10172441
19:00+8nnw812415 0.0 10191598
22:00+6nnw712440 0.0 10221322
5 october, wed
wed501:00+5nnw712440 0.0 10221102
04:00+5nnw611440 0.0 1023975
07:00+4nnw510450 0.0 1024610
10:00+7nnw610370 0.0 10251537
13:00+9n69301 0.0 10242130
16:00+11n582765 0.0 10222376
19:00+8n353595 0.0 1022398
22:00+8nw2237100 0.0 1024191
6 october, thu
thu601:00+6nnw36503 0.0 1025247
04:00+5nw35550 0.0 1026229
07:00+3nnw22570 0.0 1027154
10:00+6n12422 0.0 1028355
13:00+10nnw24276 0.0 10261518
16:00+11n132664 0.0 10241749
19:00+8s3344100 0.0 1025352
22:00+8se2345100 0.0 1026288
7 october, fri
fri701:00+8se3550100 0.0 1025345
04:00+8e1257100 0.0 1025115
07:00+7ne2260100 0.0 1025111
10:00+9nne11515 0.0 1026302
13:00+12nnw123811 0.0 10251211
16:00+12wnw123664 0.0 10241267
19:00+10w114164 0.0 1025214
22:00+9nw12483 0.0 1026151
8 october, sat
sat801:00+8nne11540 0.0 102794
04:00+6nne22570 0.0 1027111
07:00+5nne22585 0.0 1028105
10:00+9nne114795 0.0 1029224
13:00+12sw113793 0.0 1027842
16:00+12ssw334183 0.0 1026773
19:00+10s455891 0.0 1026323
22:00+11sse476024 0.0 1026573